Weather History for Missoula, MT

Change the Weather History Date:

Sunday, May 4, 2014

  Actual Average Record
Temperature  
Mean Temperature 52 °F 50 °F  
Max Temperature 61 °F 64 °F 87 °F (1918)
Min Temperature 43 °F 36 °F 25 °F (1996)
Degree Days  
Heating Degree Days 13 15  
Month to date heating degree days 36 61  
Since 1 July heating degree days 7028 6824  
Cooling Degree Days 0 0  
Month to date cooling degree days 0 0  
Year to date cooling degree days 0 0  
Growing Degree Days 2 (Base 50)    
Moisture  
Dew Point 40 °F    
Average Humidity 65    
Maximum Humidity 92    
Minimum Humidity 37    
Precipitation  
Precipitation 0.18 in 0.05 in 0.82 in (1993)
Month to date precipitation 0.28 0.18  
Year to date precipitation 6.12 3.95  
Snow  
Snow 0.00 in - - ()
Month to date snowfall 0.0  
Year to date snowfall 51.8  
Since 1 July snowfall 65.7  
Snow Depth 0.00 in    
Sea Level Pressure  
Sea Level Pressure 29.83 in    
Wind  
Wind Speed 5 mph (NW)    
Max Wind Speed 28 mph    
Max Gust Speed 36 mph    
Visibility 9 miles    
Events Rain    
T = Trace of Precipitation, MM = Missing Value Source: NWS Daily Summary

Daily Weather History Graph

Daily Weather History Graph

Search for Another Location

Airport:

Trip Planner

Search our weather history database for the weather conditions in past years. The results will help you decide how hot, cold, wet, or windy it might be!

Date:

Astronomy

May. 04, 2014 Rise Set
Actual Time 6:16 AM MDT 8:50 PM MDT
Civil Twilight 5:41 AM MDT 9:25 PM MDT
Nautical Twilight 4:58 AM MDT 10:08 PM MDT
Astronomical Twilight 4:09 AM MDT 10:59 PM MDT
Moon 10:42 AM MDT (5/4) 1:00 AM MDT (5/4)
Length of Visible Light 15h 43m
Length of Day
14h 34m
Waxing Crescent, 28% of the Moon is Illuminated
May 4
Waxing Crescent
May 6
First Quarter
May 14
Full
May 21
Last Quarter
May 28
New

Hourly Weather History & Observations

Time (MDT) Temp. Windchill Dew Point Humidity Pressure Visibility Wind Dir Wind Speed Gust Speed Precip Events Conditions
12:53 AM 48.0 °F - 44.1 °F 86% 29.82 in 10.0 mi East 4.6 mph - 0.01 in Rain Light Rain
1:53 AM 46.9 °F - 43.0 °F 86% 29.81 in 10.0 mi Calm Calm - 0.01 in   Overcast
2:53 AM 45.0 °F 41.8 °F 43.0 °F 93% 29.78 in 10.0 mi NNW 5.8 mph - N/A   Overcast
3:53 AM 45.0 °F 41.2 °F 43.0 °F 93% 29.80 in 8.0 mi North 6.9 mph - 0.03 in Rain Light Rain
4:53 AM 45.0 °F - 44.1 °F 97% 29.78 in 10.0 mi Calm Calm - 0.00 in   Overcast
5:45 AM 45.0 °F 41.8 °F 43.0 °F 93% 29.80 in 10.0 mi NW 5.8 mph - 0.02 in Rain Light Rain
5:53 AM 44.1 °F 39.5 °F 43.0 °F 96% 29.81 in 7.0 mi NW 8.1 mph - 0.03 in Rain Light Rain
6:15 AM 44.1 °F 40.1 °F 42.1 °F 93% 29.82 in 6.0 mi NW 6.9 mph - 0.03 in Rain Light Rain
6:27 AM 44.1 °F 40.8 °F 42.1 °F 93% 29.82 in 8.0 mi NW 5.8 mph - 0.04 in Rain Light Rain
6:36 AM 43.0 °F 40.3 °F 42.1 °F 97% 29.81 in 4.0 mi NNW 4.6 mph - 0.06 in Rain Rain
6:44 AM 44.1 °F 42.5 °F 42.1 °F 93% 29.81 in 5.0 mi NE 3.5 mph - 0.08 in Rain Rain
6:53 AM 44.1 °F 42.5 °F 42.1 °F 93% 29.81 in 6.0 mi NNE 3.5 mph - 0.10 in Rain Light Rain
7:53 AM 44.1 °F 42.5 °F 42.1 °F 93% 29.83 in 10.0 mi West 3.5 mph - 0.01 in   Overcast
8:18 AM 45.0 °F 42.6 °F 42.1 °F 90% 29.82 in 10.0 mi NW 4.6 mph - N/A   Overcast
8:53 AM 46.0 °F - 41.0 °F 83% 29.84 in 10.0 mi Calm Calm - N/A   Overcast
9:53 AM 46.9 °F - 41.0 °F 80% 29.85 in 10.0 mi Calm Calm - N/A   Overcast
10:03 AM 48.0 °F - 41.0 °F 77% 29.84 in 10.0 mi Calm Calm - N/A   Overcast
10:18 AM 48.0 °F - 41.0 °F 77% 29.84 in 10.0 mi WNW 3.5 mph - N/A   Overcast
10:25 AM 46.9 °F - 41.0 °F 80% 29.84 in 10.0 mi West 3.5 mph - 0.00 in Rain Light Rain
10:34 AM 46.9 °F - 41.0 °F 80% 29.84 in 8.0 mi West 4.6 mph - 0.00 in Rain Light Rain
10:53 AM 48.9 °F - 43.0 °F 80% 29.86 in 10.0 mi Calm Calm - 0.00 in   Overcast
11:53 AM 50.0 °F - 43.0 °F 77% 29.88 in 10.0 mi Calm Calm - 0.00 in   Overcast
12:53 PM 53.1 °F - 42.1 °F 66% 29.86 in 10.0 mi SSE 9.2 mph - N/A   Mostly Cloudy
1:53 PM 55.0 °F - 36.0 °F 49% 29.84 in 10.0 mi WNW 6.9 mph - N/A   Partly Cloudy
2:53 PM 57.0 °F - 36.0 °F 45% 29.83 in 10.0 mi SW 11.5 mph - N/A   Mostly Cloudy
3:53 PM 59.0 °F - 35.1 °F 41% 29.81 in 10.0 mi WNW 6.9 mph - N/A   Overcast
4:53 PM 59.0 °F - 33.1 °F 38% 29.81 in 10.0 mi West 11.5 mph - N/A   Mostly Cloudy
5:53 PM 59.0 °F - 33.1 °F 38% 29.81 in 10.0 mi WSW 9.2 mph - N/A   Overcast
6:14 PM 54.0 °F - 37.9 °F 55% 29.83 in 10.0 mi NW 19.6 mph 29.9 mph N/A   Scattered Clouds
6:53 PM 55.0 °F - 37.9 °F 53% 29.84 in 10.0 mi NW 13.8 mph - N/A   Mostly Cloudy
7:53 PM 53.1 °F - 33.1 °F 47% 29.86 in 10.0 mi NNW 12.7 mph - N/A   Overcast
8:53 PM 51.1 °F - 35.1 °F 54% 29.87 in 10.0 mi NNW 6.9 mph - N/A   Mostly Cloudy
9:53 PM 50.0 °F - 35.1 °F 57% 29.88 in 10.0 mi Calm Calm - N/A   Overcast
10:53 PM 48.9 °F - 36.0 °F 61% 29.88 in 10.0 mi Calm Calm - N/A   Overcast
11:53 PM 48.2 °F - 37.4 °F 66% 29.86 in 10.0 mi ENE 8.1 mph - N/A Rain Light Rain